CW7625 Weather Reports


time (UTC)temp
C
wind
direction
speed
KPH
gust
KPH
rain 1hr
cm
rain 24hr
cm
rain mn
cm
humidity
%
barometer
mb
20260502123052 9 216 0.0 0.0 0.00 0.00 0.00 93 1017.9
20260502121052 8 216 0.0 0.0 0.00 0.00 0.00 93 1017.4
20260502115053 7 220 0.0 0.0 0.00 0.00 0.00 92 1017.0
20260502113053 8 220 0.0 0.0 0.00 0.00 0.00 92 1016.8
20260502112052 8 220 0.0 0.0 0.00 0.00 0.00 92 1016.8
20260502111053 8 220 0.0 0.0 0.00 0.00 0.00 92 1016.8
20260502110053 8 220 0.0 0.0 0.00 0.00 0.00 92 1016.7
20260502105052 8 220 0.0 0.0 0.00 0.00 0.00 91 1016.6
20260502104053 8 220 0.0 0.0 0.00 0.00 0.00 92 1016.5
20260502103053 9 220 0.0 0.0 0.00 0.00 0.00 92 1016.4
20260502102053 9 220 0.0 0.0 0.00 0.00 0.00 92 1016.4
20260502101053 9 220 0.0 0.0 0.00 0.00 0.00 92 1016.3
20260502091053 10 220 0.0 0.0 0.00 0.00 0.00 92 1015.9
20260502071053 11 220 0.0 0.0 0.00 0.00 0.00 91 1016.0
20260502070053 12 220 0.0 0.0 0.00 0.00 0.00 91 1016.0
20260502065053 12 220 0.0 0.0 0.00 0.03 0.00 91 1016.0
20260502063053 12 220 0.0 1.6 0.00 0.03 0.00 91 1016.1
20260502061053 12 220 0.0 0.0 0.00 0.03 0.00 91 1016.0
20260502060053 12 220 0.0 1.6 0.00 0.03 0.00 91 1016.0
20260502055053 13 220 0.0 0.0 0.00 0.03 0.00 91 1016.0
20260502054053 13 220 0.0 0.0 0.00 0.03 0.00 91 1015.9
20260502052053 13 220 0.0 0.0 0.00 0.03 0.00 91 1016.0
20260502051053 13 220 0.0 0.0 0.00 0.03 0.00 90 1016.0
20260502050053 13 220 0.0 0.0 0.00 0.03 0.00 90 1016.0
20260502045053 13 220 0.0 0.0 0.00 0.03 0.03 90 1015.9
20260502044053 13 220 0.0 0.0 0.00 0.03 0.03 90 1015.8
20260502043054 13 220 0.0 1.6 0.00 0.03 0.03 90 1015.7
20260502042054 13 220 0.0 0.0 0.00 0.03 0.03 90 1015.6
20260502041053 14 220 0.0 0.0 0.00 0.03 0.03 90 1015.8
20260502035053 14 220 0.0 0.0 0.00 0.05 0.03 89 1015.9
20260502034053 14 220 0.0 0.0 0.00 0.05 0.03 89 1016.0
20260502033054 14 220 0.0 1.6 0.00 0.08 0.03 89 1016.0
20260502032053 14 220 0.0 3.2 0.00 0.15 0.03 89 1015.9
20260502030053 15 220 0.0 0.0 0.00 0.20 0.03 89 1015.8
20260502025053 15 220 0.0 0.0 0.00 0.20 0.03 89 1015.7
20260502024053 15 220 0.0 0.0 0.00 0.20 0.03 89 1015.6
20260502023053 15 220 0.0 0.0 0.00 0.20 0.03 89 1015.4
20260502022054 15 220 0.0 0.0 0.00 0.20 0.03 90 1015.3
20260502020054 15 220 0.0 0.0 0.00 0.20 0.03 89 1014.9
20260502015054 15 220 0.0 0.0 0.00 0.20 0.03 89 1014.7
20260502014054 15 220 0.0 0.0 0.00 0.20 0.03 89 1014.7
20260502013054 16 220 0.0 0.0 0.00 0.20 0.03 88 1014.5
20260502011054 16 220 0.0 0.0 0.00 0.20 0.03 87 1014.0
20260502010054 16 220 0.0 0.0 0.00 0.20 0.03 86 1014.0
20260502004054 16 233 0.0 0.0 0.00 0.20 0.03 85 1013.7
20260502003054 17 233 0.0 0.0 0.00 0.20 0.03 83 1013.9
20260502002054 17 233 0.0 0.0 0.00 0.20 0.03 83 1013.8
20260502001054 17 233 0.0 0.0 0.00 0.20 0.03 83 1013.6
20260502000054 18 113 0.0 0.0 0.00 0.20 0.03 81 1013.6
20260501235054 18 113 0.0 0.0 0.00 0.20 0.03 80 1013.4
20260501233054 18 113 0.0 0.0 0.00 0.20 0.03 77 1013.2
20260501232054 18 115 0.0 1.6 0.00 0.20 0.03 75 1012.9
20260501230054 18 66 0.0 3.2 0.00 0.20 0.03 73 1012.7
20260501225054 18 66 0.0 3.2 0.00 0.20 0.03 74 1012.6
20260501224054 19 66 0.0 3.2 0.00 0.20 0.03 74 1012.0
20260501223054 19 66 1.6 3.2 0.00 0.20 0.03 69 1011.9
20260501222054 19 66 0.0 6.4 0.00 0.20 0.03 66 1011.9
20260501221054 20 92 0.0 8.0 0.00 0.20 0.03 67 1012.1
20260501215054 20 107 4.8 6.4 0.00 0.20 0.03 63 1012.2
20260501214054 20 57 4.8 9.7 0.00 0.20 0.03 60 1012.2
20260501213054 19 83 3.2 9.7 0.00 0.20 0.03 60 1012.6
20260501212054 20 84 4.8 11.3 0.00 0.20 0.03 61 1012.5
20260501211054 20 20 4.8 11.3 0.00 0.20 0.03 62 1012.7
20260501210054 20 53 3.2 17.7 0.00 0.20 0.03 59 1012.8
20260501205054 20 101 6.4 14.5 0.00 0.20 0.03 61 1012.5
20260501204054 20 41 4.8 17.7 0.00 0.20 0.03 61 1012.4
20260501203054 20 87 14.5 16.1 0.00 0.20 0.03 61 1012.4
20260501202054 19 24 6.4 20.9 0.00 0.20 0.03 59 1012.4
20260501201054 20 29 9.7 17.7 0.00 0.20 0.03 60 1012.5
20260501195054 20 92 17.7 19.3 0.00 0.20 0.03 59 1012.9
20260501194054 20 85 14.5 19.3 0.00 0.20 0.03 62 1013.0
20260501193055 20 67 3.2 24.1 0.00 0.20 0.03 62 1013.4
20260501192054 20 81 16.1 20.9 0.00 0.20 0.03 63 1013.7
20260501191054 20 107 11.3 16.1 0.00 0.20 0.03 65 1014.2
20260501190054 20 61 12.9 19.3 0.00 0.20 0.03 64 1014.2
20260501185054 19 38 11.3 24.1 0.00 0.20 0.03 67 1014.4
20260501184055 18 34 9.7 20.9 0.00 0.20 0.03 65 1014.7
20260501183054 18 94 12.9 24.1 0.00 0.20 0.03 64 1015.1
20260501182055 18 46 8.0 19.3 0.00 0.20 0.03 67 1015.0
20260501181054 18 67 8.0 19.3 0.00 0.20 0.03 72 1015.2
20260501180057 18 307 4.8 17.7 0.00 0.20 0.03 73 1015.4
20260501175054 17 39 4.8 14.5 0.00 0.20 0.03 71 1015.5
20260501174054 16 39 8.0 12.9 0.00 0.20 0.03 74 1015.5
20260501173055 16 24 3.2 12.9 0.00 0.20 0.03 74 1015.3
20260501170055 16 118 4.8 12.9 0.00 0.20 0.03 76 1016.0
20260501165055 16 59 8.0 14.5 0.00 0.20 0.03 75 1016.2
20260501164054 16 64 6.4 8.0 0.00 0.20 0.03 79 1016.4
20260501163055 15 77 4.8 11.3 0.00 0.20 0.03 78 1016.6
20260501162055 15 21 3.2 8.0 0.00 0.20 0.03 78 1016.3
20260501161055 15 78 3.2 8.0 0.00 0.20 0.03 78 1016.5
20260501160054 15 32 4.8 8.0 0.00 0.20 0.03 78 1016.3
20260501155054 15 38 4.8 9.7 0.00 0.20 0.03 78 1016.0
20260501154055 15 100 4.8 12.9 0.00 0.20 0.03 79 1015.9
20260501153055 15 63 4.8 12.9 0.00 0.20 0.03 78 1016.0
20260501152055 15 58 8.0 12.9 0.00 0.20 0.03 78 1015.9
20260501151055 15 27 6.4 9.7 0.00 0.20 0.03 82 1015.5